EW8032 Weather Reports


Display with metric or nautical units.
time (UTC)temp
F
wind
direction
speed
MPH
gust
MPH
rain 1hr
in
rain 24hr
in
rain mn
in
humidity
%
barometer
mb
20260506001440 52 246 2.0 4.0 0.02 0.45 0.03 96 1012.6
20260506000929 52 232 2.0 4.0 0.02 0.45 0.03 96 1012.7
20260506000839 52 244 2.0 4.0 0.02 0.45 0.03 96 1012.7
20260506000702 52 236 3.0 4.0 0.02 0.45 0.03 96 1012.7
20260506000510 52 264 2.0 4.0 0.02 0.45 0.03 96 1012.8
20260506000457 52 282 2.0 4.0 0.02 0.45 0.03 96 1012.8
20260506000330 52 222 2.0 4.0 0.02 0.46 0.03 96 1012.6
20260506000153 52 236 2.0 4.0 0.02 0.46 0.03 96 1012.7
20260506000057 52 277 2.0 4.0 0.02 0.46 0.03 96 1012.8
20260505235630 52 222 2.0 3.0 0.02 0.45 0.03 96 1012.7
20260505235342 52 228 2.0 3.0 0.02 0.45 0.02 96 1012.8
20260505235329 52 229 2.0 3.0 0.02 0.45 0.02 96 1012.8
20260505235210 52 281 2.0 3.0 0.02 0.45 0.02 96 1012.8
20260505235040 52 235 2.0 3.0 0.02 0.45 0.02 96 1012.9
20260505234856 52 231 2.0 3.0 0.02 0.45 0.02 96 1012.9
20260505234810 52 225 1.0 3.0 0.02 0.45 0.02 96 1012.8
20260505234637 52 215 1.0 2.0 0.02 0.45 0.02 96 1012.8
20260505234512 52 222 1.0 2.0 0.02 0.45 0.02 96 1012.8
20260505234452 52 222 0.0 2.0 0.02 0.45 0.02 96 1012.8
20260505234337 52 223 0.0 2.0 0.02 0.45 0.02 95 1012.8
20260505234228 52 223 1.0 2.0 0.02 0.45 0.02 96 1012.7
20260505233528 52 223 0.0 2.0 0.02 0.45 0.02 96 1012.7
20260505233304 52 223 1.0 2.0 0.02 0.46 0.02 96 1012.7
20260505233252 52 223 1.0 2.0 0.02 0.46 0.02 96 1012.8
20260505233149 52 234 1.0 2.0 0.02 0.46 0.02 95 1012.8
20260505233024 52 236 1.0 2.0 0.02 0.46 0.02 95 1012.8
20260505232837 52 252 1.0 2.0 0.02 0.46 0.02 95 1012.7
20260505232414 53 226 1.0 2.0 0.02 0.45 0.02 95 1012.7
20260505232138 53 226 1.0 2.0 0.02 0.45 0.02 95 1012.8
20260505232122 53 221 1.0 2.0 0.02 0.45 0.02 95 1012.7
20260505232006 53 219 1.0 2.0 0.02 0.45 0.02 95 1012.6
20260505231740 53 219 0.0 3.0 0.02 0.45 0.02 95 1012.7
20260505231638 53 219 1.0 3.0 0.02 0.45 0.02 95 1012.6
20260505231550 53 219 1.0 3.0 0.02 0.45 0.02 95 1012.7
20260505231330 53 219 2.0 3.0 0.02 0.45 0.02 95 1012.7
20260505231306 53 219 2.0 3.0 0.02 0.45 0.02 95 1012.7
20260505231206 53 219 2.0 3.0 0.02 0.45 0.02 95 1012.7
20260505231007 53 226 1.0 3.0 0.02 0.46 0.02 95 1012.6
20260505230942 53 239 1.0 3.0 0.02 0.46 0.02 95 1012.7
20260505230836 53 209 1.0 3.0 0.02 0.46 0.02 95 1012.8
20260505230711 53 202 2.0 3.0 0.02 0.46 0.02 95 1012.8
20260505230607 53 226 2.0 3.0 0.02 0.46 0.02 95 1012.8
20260505230538 53 236 2.0 3.0 0.02 0.46 0.02 95 1012.9
20260505230006 53 263 2.0 3.0 0.02 0.46 0.02 95 1012.9
20260505225937 53 233 1.0 3.0 0.02 0.46 0.02 95 1012.9
20260505225509 53 221 1.0 3.0 0.02 0.45 0.01 95 1012.8
20260505225305 53 221 2.0 3.0 0.02 0.45 0.01 95 1012.8
20260505225240 53 221 2.0 3.0 0.02 0.45 0.01 95 1012.9
20260505225141 53 221 2.0 3.0 0.02 0.45 0.01 95 1012.7
20260505224923 53 227 1.0 3.0 0.02 0.45 0.01 95 1012.8
20260505224854 53 227 2.0 3.0 0.02 0.45 0.01 95 1012.9
20260505224733 53 231 1.0 2.0 0.02 0.45 0.01 95 1012.9
20260505224615 53 223 2.0 2.0 0.02 0.45 0.01 95 1012.9
20260505224449 53 229 1.0 2.0 0.02 0.46 0.01 95 1012.9
20260505224414 53 229 1.0 2.0 0.02 0.46 0.01 95 1012.8
20260505224305 53 229 1.0 2.0 0.02 0.46 0.01 95 1012.8
20260505224140 53 229 1.0 2.0 0.02 0.46 0.01 94 1012.9
20260505224118 53 229 1.0 2.0 0.02 0.46 0.01 94 1012.8
20260505223652 53 228 1.0 2.0 0.02 0.46 0.01 94 1012.9
20260505223554 53 246 1.0 2.0 0.02 0.46 0.01 94 1012.9
20260505223158 53 225 1.0 2.0 0.02 0.46 0.01 94 1012.9
20260505223021 53 225 0.0 2.0 0.02 0.46 0.01 94 1012.9
20260505222330 53 225 0.0 2.0 0.02 0.45 0.00 94 1012.9
20260505222220 54 225 1.0 2.0 0.02 0.45 0.00 94 1012.9
20260505222141 54 225 1.0 2.0 0.02 0.45 0.00 94 1013.0
20260505222031 54 236 1.0 2.0 0.02 0.46 0.00 94 1012.9
20260505221916 54 239 0.0 2.0 0.02 0.46 0.00 94 1013.0
20260505221859 54 239 0.0 2.0 0.02 0.46 0.00 94 1013.0
20260505221416 54 238 1.0 3.0 0.02 0.46 0.00 94 1012.9
20260505221234 54 248 1.0 3.0 0.02 0.46 0.00 93 1012.9
20260505221206 54 234 1.0 3.0 0.02 0.46 0.00 93 1012.9
20260505221056 54 224 2.0 4.0 0.02 0.46 0.00 93 1013.0
20260505220800 54 251 2.0 4.0 0.02 0.46 0.00 93 1012.9
20260505220723 54 221 2.0 4.0 0.02 0.46 0.00 93 1013.0
20260505220618 54 223 2.0 4.0 0.02 0.46 0.00 93 1013.0
20260505220447 54 219 2.0 4.0 0.02 0.46 0.00 93 1013.0
20260505220300 54 219 2.0 4.0 0.02 0.46 0.46 93 1013.0
20260505220240 54 222 2.0 4.0 0.02 0.46 0.46 93 1013.0
20260505220104 54 223 2.0 3.0 0.02 0.46 0.46 93 1013.0
20260505215828 54 229 0.0 2.0 0.02 0.46 0.46 93 1013.1
20260505215455 54 221 0.0 2.0 0.02 0.46 0.46 93 1013.1
20260505215353 54 221 1.0 2.0 0.02 0.46 0.45 93 1013.0
20260505215150 54 223 0.0 2.0 0.02 0.46 0.45 93 1013.1
20260505215125 54 223 0.0 1.0 0.02 0.46 0.45 93 1013.1
20260505215032 54 242 0.0 0.0 0.02 0.46 0.45 93 1013.0
20260505214841 54 242 0.0 0.0 0.02 0.46 0.45 93 1013.0
20260505214821 54 242 0.0 0.0 0.02 0.46 0.45 93 1013.0
20260505214757 54 242 0.0 0.0 0.02 0.46 0.45 93 1013.1
20260505214655 54 242 0.0 0.0 0.02 0.46 0.45 93 1013.1
20260505214605 54 242 0.0 0.0 0.02 0.46 0.45 93 1013.0
20260505214206 54 242 0.0 0.0 0.02 0.46 0.45 93 1013.1
20260505214114 54 242 0.0 0.0 0.02 0.46 0.45 93 1013.0
20260505214050 54 242 0.0 0.0 0.02 0.46 0.45 93 1013.2
20260505214010 54 242 0.0 0.0 0.02 0.46 0.45 93 1013.2
20260505213834 54 242 0.0 0.0 0.02 0.46 0.45 92 1013.2
20260505213804 54 242 0.0 0.0 0.02 0.46 0.45 92 1013.2
20260505213606 54 242 0.0 0.0 0.02 0.46 0.45 92 1013.2
20260505213430 54 242 0.0 0.0 0.02 0.46 0.45 92 1013.2
20260505213403 54 242 0.0 0.0 0.02 0.46 0.45 92 1013.2
20260505213337 54 242 0.0 0.0 0.02 0.46 0.44 92 1013.3
20260505213214 54 242 0.0 1.0 0.02 0.46 0.44 92 1013.3
20260505213124 54 242 0.0 1.0 0.02 0.46 0.44 92 1013.3
20260505213039 54 242 0.0 2.0 0.02 0.46 0.44 92 1013.3
20260505212952 54 242 0.0 2.0 0.02 0.46 0.44 92 1013.2
20260505212919 54 242 0.0 2.0 0.02 0.46 0.44 92 1013.2
20260505212857 54 242 0.0 2.0 0.02 0.46 0.44 92 1013.3
20260505212420 54 236 0.0 2.0 0.02 0.46 0.44 92 1013.3
20260505212259 54 231 0.0 0.0 0.02 0.46 0.44 92 1013.3
20260505211909 54 231 0.0 0.0 0.02 0.46 0.44 91 1013.3
20260505211547 54 231 0.0 0.0 0.02 0.46 0.44 91 1013.3
20260505211435 54 231 0.0 0.0 0.02 0.46 0.44 91 1013.3
20260505211053 54 231 0.0 0.0 0.02 0.46 0.44 91 1013.3
20260505211016 54 231 0.0 0.0 0.02 0.46 0.43 91 1013.3
20260505210950 54 231 0.0 1.0 0.02 0.46 0.43 91 1013.4
20260505210854 54 231 0.0 2.0 0.02 0.46 0.43 91 1013.2
20260505210807 54 231 0.0 2.0 0.02 0.46 0.43 91 1013.2
20260505210720 54 231 0.0 2.0 0.02 0.46 0.43 91 1013.2
20260505210619 54 231 1.0 2.0 0.02 0.46 0.43 91 1013.2
20260505205913 54 215 0.0 0.0 0.02 0.46 0.43 91 1013.2
20260505205612 54 215 0.0 0.0 0.02 0.46 0.43 90 1013.2
20260505205207 55 215 0.0 0.0 0.02 0.46 0.43 90 1013.0
20260505205125 55 215 0.0 0.0 0.02 0.46 0.43 90 1013.1
20260505205056 55 215 0.0 0.0 0.02 0.46 0.43 90 1013.2
20260505204949 55 215 0.0 0.0 0.02 0.47 0.43 90 1013.1
20260505204909 55 215 0.0 0.0 0.02 0.47 0.43 90 1013.1
20260505204606 55 215 0.0 0.0 0.02 0.47 0.43 90 1013.2
20260505204502 55 215 0.0 0.0 0.02 0.46 0.43 90 1013.1
20260505204147 55 215 0.0 0.0 0.02 0.46 0.43 90 1013.1
20260505204041 55 215 0.0 0.0 0.02 0.46 0.43 90 1013.1
20260505203741 55 215 0.0 0.0 0.02 0.46 0.43 90 1013.0
20260505203702 55 215 0.0 0.0 0.02 0.46 0.43 90 1013.0
20260505203537 55 215 0.0 0.0 0.02 0.46 0.43 89 1013.0
20260505203521 55 215 0.0 0.0 0.02 0.46 0.43 89 1012.9
20260505203158 55 215 0.0 1.0 0.02 0.47 0.43 89 1013.0
20260505203056 55 215 0.0 1.0 0.02 0.47 0.43 89 1013.0
20260505202649 55 215 0.0 3.0 0.02 0.47 0.43 89 1012.9
20260505202636 55 215 0.0 3.0 0.02 0.47 0.43 89 1012.9
20260505202545 55 221 0.0 3.0 0.02 0.47 0.43 89 1012.9
20260505202434 55 221 0.0 3.0 0.02 0.47 0.43 89 1012.9
20260505202349 55 221 1.0 3.0 0.02 0.46 0.43 89 1013.0
20260505202323 55 221 1.0 3.0 0.02 0.46 0.42 89 1012.8
20260505202220 55 245 0.0 1.0 0.02 0.46 0.42 89 1012.8
20260505202107 55 220 0.0 1.0 0.02 0.46 0.42 89 1012.8
20260505201743 55 220 0.0 1.0 0.02 0.47 0.42 88 1012.7
20260505201647 55 220 0.0 1.0 0.02 0.47 0.42 89 1012.7
20260505201536 55 233 0.0 2.0 0.02 0.47 0.42 89 1012.8
20260505201426 55 233 0.0 2.0 0.02 0.47 0.42 88 1012.8
20260505201335 55 233 0.0 3.0 0.02 0.47 0.42 88 1012.6
20260505201319 55 233 0.0 3.0 0.02 0.47 0.42 88 1012.7
20260505201251 55 233 0.0 3.0 0.02 0.47 0.42 88 1012.7
20260505201144 55 233 0.0 3.0 0.02 0.47 0.42 88 1012.6
20260505201043 55 234 0.0 3.0 0.02 0.47 0.42 88 1012.6
20260505201027 55 234 1.0 3.0 0.02 0.47 0.42 88 1012.6
20260505200914 56 234 0.0 3.0 0.02 0.47 0.42 88 1012.5
20260505200741 56 219 0.0 0.0 0.02 0.47 0.42 87 1012.5
20260505200721 56 219 0.0 0.0 0.02 0.48 0.42 87 1012.6
20260505200646 56 219 0.0 1.0 0.02 0.47 0.42 87 1012.6
20260505200233 56 219 0.0 1.0 0.02 0.47 0.41 87 1012.6
20260505200121 56 219 0.0 1.0 0.02 0.47 0.41 87 1012.4
20260505200032 56 219 0.0 1.0 0.02 0.47 0.41 86 1012.4
20260505200008 56 212 0.0 0.0 0.02 0.47 0.41 86 1012.4
20260505195644 56 212 0.0 2.0 0.02 0.47 0.41 86 1012.4
20260505195035 56 212 0.0 2.0 0.02 0.48 0.41 86 1012.3
20260505194955 56 212 0.0 2.0 0.02 0.48 0.41 86 1012.3
20260505194653 56 212 1.0 2.0 0.02 0.48 0.41 86 1012.3
20260505194527 56 212 0.0 2.0 0.02 0.48 0.41 86 1012.3
20260505194203 56 200 0.0 2.0 0.02 0.48 0.41 85 1012.3
20260505194107 56 200 0.0 2.0 0.02 0.47 0.41 85 1012.3
20260505193958 56 200 0.0 2.0 0.02 0.47 0.40 85 1012.3
20260505193021 56 239 0.0 0.0 0.02 0.48 0.40 84 1012.3
20260505193012 56 239 0.0 0.0 0.02 0.48 0.40 84 1012.3
20260505192906 56 239 0.0 0.0 0.02 0.48 0.40 84 1012.3
20260505192756 56 239 0.0 0.0 0.02 0.48 0.40 84 1012.3
20260505192710 56 239 0.0 0.0 0.02 0.48 0.40 84 1012.2
20260505192352 57 239 0.0 0.0 0.02 0.48 0.40 83 1012.3
20260505192311 57 239 0.0 0.0 0.02 0.48 0.40 83 1012.3
20260505192254 57 239 0.0 0.0 0.02 0.48 0.40 83 1012.2
20260505191843 57 239 0.0 3.0 0.02 0.48 0.40 83 1012.3
20260505191531 57 239 0.0 7.0 0.02 0.48 0.40 82 1012.2
20260505191416 57 239 0.0 8.0 0.02 0.48 0.39 82 1012.2
20260505191331 57 239 2.0 8.0 0.02 0.48 0.39 82 1012.2
20260505191307 57 239 2.0 8.0 0.02 0.48 0.39 82 1012.1
20260505191156 57 235 2.0 8.0 0.02 0.48 0.39 82 1012.2
20260505190709 57 223 4.0 8.0 0.02 0.48 0.39 81 1012.2
20260505190642 57 255 3.0 8.0 0.02 0.48 0.39 81 1012.2
20260505190451 57 221 3.0 7.0 0.02 0.48 0.39 81 1012.1
20260505190314 57 210 2.0 7.0 0.02 0.48 0.39 81 1012.2
20260505190243 57 238 2.0 7.0 0.02 0.48 0.39 81 1012.1
20260505190136 57 223 3.0 7.0 0.02 0.48 0.39 81 1012.1
20260505185947 58 230 4.0 7.0 0.02 0.48 0.39 80 1012.1
20260505185825 58 225 4.0 7.0 0.02 0.49 0.39 80 1012.1
20260505185801 58 267 4.0 7.0 0.02 0.49 0.39 80 1012.1
20260505185227 58 232 2.0 4.0 0.02 0.49 0.39 79 1012.2
20260505185141 58 245 2.0 4.0 0.02 0.49 0.39 79 1012.2
20260505184702 58 229 3.0 9.0 0.02 0.49 0.39 79 1012.2
20260505184538 58 232 3.0 9.0 0.02 0.49 0.39 78 1012.2
20260505184139 58 243 3.0 12.0 0.02 0.49 0.39 78 1012.2
20260505184006 58 232 4.0 12.0 0.02 0.48 0.39 77 1012.2
20260505183922 58 250 4.0 12.0 0.02 0.48 0.39 77 1012.3
20260505183822 58 259 5.0 12.0 0.02 0.48 0.39 77 1012.2
20260505183639 58 255 6.0 12.0 0.02 0.49 0.39 78 1012.2
20260505183453 58 222 6.0 12.0 0.02 0.49 0.39 78 1012.3
20260505183434 58 272 5.0 12.0 0.02 0.49 0.39 78 1012.2
20260505183247 58 280 6.0 15.0 0.02 0.49 0.39 77 1012.3
20260505183105 58 275 5.0 15.0 0.02 0.49 0.39 77 1012.3
20260505182716 58 238 5.0 15.0 0.02 0.49 0.39 77 1012.3
20260505182531 59 217 7.0 15.0 0.02 0.49 0.39 77 1012.3
20260505182355 59 240 9.0 15.0 0.02 0.49 0.39 76 1012.2
20260505182332 59 246 9.0 15.0 0.02 0.49 0.39 76 1012.3
20260505182151 59 236 8.0 18.0 0.02 0.49 0.39 75 1012.3
20260505182006 59 261 8.0 18.0 0.02 0.49 0.39 75 1012.2
20260505181924 59 252 8.0 18.0 0.02 0.50 0.39 74 1012.2
20260505181800 59 254 7.0 18.0 0.02 0.50 0.39 75 1012.2
20260505181623 60 244 5.0 18.0 0.02 0.50 0.39 75 1012.2
20260505181305 60 275 10.0 18.0 0.02 0.49 0.38 74 1012.2
20260505181119 60 257 9.0 17.0 0.02 0.49 0.38 73 1012.2
20260505180936 60 254 8.0 17.0 0.02 0.49 0.38 74 1012.2
20260505180857 60 237 10.0 17.0 0.02 0.49 0.38 74 1012.3
20260505180115 60 246 9.0 17.0 0.02 0.49 0.38 73 1012.1
20260505180039 60 244 9.0 17.0 0.02 0.49 0.38 72 1012.1
20260505175902 60 264 8.0 17.0 0.02 0.49 0.38 72 1012.1
20260505175707 60 238 10.0 17.0 0.02 0.50 0.38 72 1012.1
20260505175641 60 225 6.0 17.0 0.02 0.50 0.38 72 1012.1
20260505175524 60 267 6.0 18.0 0.02 0.50 0.38 75 1012.1
20260505175339 60 242 6.0 18.0 0.02 0.50 0.38 75 1012.2
20260505175218 60 257 9.0 18.0 0.02 0.50 0.38 75 1012.2
20260505175145 60 307 9.0 18.0 0.02 0.50 0.38 75 1012.1
20260505175003 60 251 11.0 18.0 0.02 0.49 0.38 74 1012.1
20260505174823 60 259 10.0 18.0 0.02 0.49 0.37 73 1012.1
20260505174750 60 257 8.0 18.0 0.02 0.49 0.37 74 1012.1
20260505174616 60 252 8.0 16.0 0.02 0.49 0.37 74 1012.1
20260505174428 60 266 5.0 15.0 0.02 0.49 0.37 75 1012.0
20260505174309 60 231 6.0 15.0 0.02 0.49 0.37 75 1012.2
20260505174232 60 261 6.0 15.0 0.02 0.50 0.37 75 1012.0
20260505174052 60 238 8.0 15.0 0.02 0.50 0.37 74 1012.1
20260505173613 60 234 5.0 17.0 0.02 0.50 0.37 73 1012.0
20260505173433 60 234 8.0 17.0 0.02 0.50 0.37 73 1012.1
20260505173327 60 262 6.0 17.0 0.02 0.50 0.37 73 1012.1
20260505173242 60 232 6.0 17.0 0.02 0.50 0.37 73 1012.1
20260505172822 60 246 8.0 17.0 0.02 0.50 0.37 72 1012.0
20260505172805 60 248 8.0 17.0 0.02 0.50 0.37 72 1012.2
20260505172626 60 232 9.0 17.0 0.02 0.49 0.36 72 1012.1
20260505172436 61 237 8.0 16.0 0.02 0.50 0.36 71 1012.1
20260505172027 62 224 4.0 11.0 0.02 0.50 0.36 70 1012.0
20260505171450 62 248 5.0 11.0 0.02 0.50 0.36 73 1012.1
20260505170715 62 290 6.0 11.0 0.02 0.50 0.36 74 1012.2
20260505170524 62 245 6.0 9.0 0.02 0.49 0.35 74 1012.3
20260505170343 61 267 5.0 11.0 0.02 0.50 0.35 74 1012.3
20260505170246 61 258 4.0 11.0 0.02 0.50 0.35 75 1012.3
20260505170151 61 273 4.0 11.0 0.02 0.50 0.35 75 1012.2
20260505170017 61 219 5.0 11.0 0.02 0.50 0.35 74 1012.3
20260505165826 61 235 5.0 11.0 0.02 0.50 0.35 73 1012.3
20260505165814 61 259 5.0 11.0 0.02 0.50 0.35 73 1012.3
20260505165635 61 230 9.0 12.0 0.02 0.50 0.35 72 1012.3
20260505165457 61 265 5.0 13.0 0.02 0.50 0.35 72 1012.4
20260505165343 61 294 4.0 13.0 0.02 0.50 0.35 72 1012.3
20260505164741 61 246 7.0 15.0 0.02 0.50 0.35 71 1012.4
20260505164606 61 266 4.0 15.0 0.02 0.49 0.35 72 1012.4
20260505164422 61 235 9.0 15.0 0.02 0.50 0.35 71 1012.4
20260505164319 61 248 10.0 15.0 0.02 0.50 0.35 70 1012.3
20260505163835 62 235 9.0 19.0 0.02 0.50 0.35 70 1012.3
20260505163647 62 257 9.0 19.0 0.02 0.50 0.35 70 1012.3
20260505163639 62 234 9.0 19.0 0.02 0.50 0.35 70 1012.3
20260505163451 62 271 8.0 19.0 0.02 0.50 0.35 69 1012.4
20260505163304 62 239 13.0 19.0 0.02 0.50 0.35 69 1012.3
20260505163204 62 255 11.0 19.0 0.02 0.50 0.35 69 1012.4
20260505163107 62 246 9.0 19.0 0.02 0.50 0.35 70 1012.3
20260505162925 62 258 12.0 17.0 0.02 0.50 0.35 70 1012.3
20260505162744 62 273 11.0 16.0 0.02 0.50 0.35 70 1012.3
20260505162736 62 302 11.0 16.0 0.02 0.50 0.35 70 1012.3
20260505162555 62 258 8.0 17.0 0.02 0.50 0.35 70 1012.3
20260505162416 62 233 6.0 17.0 0.02 0.50 0.34 71 1012.3
20260505162311 62 252 9.0 17.0 0.02 0.50 0.34 69 1012.3
20260505162220 62 278 9.0 17.0 0.02 0.50 0.34 68 1012.3
20260505162034 62 244 9.0 17.0 0.02 0.50 0.34 68 1012.2
20260505161614 62 236 7.0 19.0 0.02 0.50 0.34 69 1012.2
20260505161142 62 267 11.0 19.0 0.02 0.50 0.34 67 1012.2
20260505161047 62 263 12.0 19.0 0.02 0.50 0.34 67 1012.2
20260505160900 62 269 7.0 19.0 0.02 0.50 0.34 69 1012.2
20260505160708 62 279 9.0 19.0 0.02 0.50 0.34 69 1012.2
20260505160533 62 250 5.0 12.0 0.02 0.50 0.33 71 1012.2
20260505160340 61 234 4.0 11.0 0.02 0.50 0.33 71 1012.1
20260505160243 61 230 4.0 12.0 0.02 0.50 0.33 72 1012.2
20260505160153 61 217 4.0 12.0 0.02 0.50 0.33 73 1012.1
20260505153217 61 290 6.0 15.0 0.02 0.50 0.32 73 1012.2
20260505153036 61 238 11.0 15.0 0.03 0.50 0.32 72 1012.3
20260505152623 60 290 9.0 15.0 0.02 0.50 0.31 74 1012.2
20260505152438 60 300 9.0 14.0 0.02 0.50 0.31 74 1012.2
20260505151828 60 295 10.0 15.0 0.02 0.50 0.31 75 1012.3
20260505151223 60 224 10.0 15.0 0.02 0.50 0.31 74 1012.4
20260505151156 60 259 10.0 15.0 0.02 0.50 0.31 74 1012.3
20260505151008 60 269 7.0 15.0 0.03 0.50 0.31 76 1012.4
20260505150824 60 244 10.0 15.0 0.03 0.50 0.31 75 1012.3
20260505150413 61 291 6.0 14.0 0.02 0.50 0.31 77 1012.3
20260505140532 60 313 9.0 13.0 0.02 0.50 0.28 77 1012.6
20260505140349 60 258 6.0 11.0 0.02 0.50 0.28 79 1012.5
20260505130151 57 252 7.0 19.0 0.02 0.50 0.26 87 1013.0
20260505124905 56 288 8.0 16.0 0.02 0.50 0.25 86 1013.2
20260505124705 56 272 7.0 16.0 0.02 0.50 0.25 87 1013.3
20260505124119 56 260 9.0 15.0 0.02 0.50 0.25 88 1013.3
20260505124024 56 286 8.0 15.0 0.02 0.50 0.25 87 1013.2
20260505123930 56 264 9.0 14.0 0.02 0.50 0.25 88 1013.2
20260505123747 56 267 10.0 14.0 0.02 0.50 0.25 88 1013.3
20260505123600 56 273 8.0 14.0 0.02 0.50 0.25 89 1013.3
20260505123420 56 283 8.0 14.0 0.02 0.50 0.25 89 1013.2
20260505123231 56 266 8.0 14.0 0.02 0.50 0.25 90 1013.2
20260505123139 56 246 8.0 13.0 0.02 0.50 0.25 91 1013.3
20260505123029 56 251 8.0 13.0 0.02 0.50 0.24 91 1013.3
20260505122846 56 274 8.0 13.0 0.02 0.50 0.24 92 1013.2
20260505122658 56 276 6.0 13.0 0.02 0.50 0.24 93 1013.3
20260505122649 56 273 6.0 13.0 0.02 0.50 0.24 93 1013.3
20260505122502 55 307 7.0 14.0 0.02 0.50 0.24 92 1013.2
20260505122319 55 239 6.0 14.0 0.02 0.50 0.24 92 1013.2
20260505122212 55 232 7.0 14.0 0.02 0.50 0.24 92 1013.2
20260505122127 55 232 9.0 18.0 0.02 0.50 0.24 92 1013.2
20260505121941 55 251 6.0 18.0 0.02 0.50 0.24 92 1013.3
20260505121643 55 229 9.0 18.0 0.02 0.50 0.24 92 1013.3
20260505121507 55 259 7.0 18.0 0.02 0.50 0.24 93 1013.2
20260505121323 55 252 10.0 18.0 0.02 0.50 0.24 92 1013.2
20260505121214 55 269 9.0 18.0 0.02 0.50 0.24 92 1013.2
20260505121126 55 271 9.0 17.0 0.02 0.50 0.24 93 1013.2
20260505120945 55 243 11.0 17.0 0.02 0.50 0.24 92 1013.3
20260505120801 55 290 10.0 17.0 0.02 0.50 0.24 93 1013.2
20260505120727 55 276 10.0 17.0 0.02 0.50 0.24 93 1013.2
20260505120256 55 285 7.0 16.0 0.02 0.50 0.24 94 1013.3
20260505120145 55 257 7.0 16.0 0.02 0.50 0.24 94 1013.2
20260505120106 55 271 8.0 16.0 0.02 0.50 0.24 94 1013.2
20260505115922 55 258 9.0 16.0 0.02 0.50 0.24 94 1013.2
20260505115735 55 235 8.0 16.0 0.02 0.50 0.24 94 1013.2
20260505115715 55 279 8.0 16.0 0.02 0.50 0.24 94 1013.2
20260505115200 54 287 12.0 16.0 0.02 0.50 0.24 94 1013.3
20260505115048 55 267 11.0 17.0 0.02 0.50 0.24 94 1013.2
20260505115005 55 248 9.0 17.0 0.02 0.50 0.24 94 1013.3
20260505114821 55 277 10.0 17.0 0.02 0.50 0.24 94 1013.2
20260505114643 54 286 13.0 17.0 0.02 0.50 0.24 94 1013.2
20260505114617 54 271 13.0 17.0 0.02 0.49 0.24 94 1013.2
20260505114052 54 272 12.0 17.0 0.02 0.50 0.23 94 1013.2
20260505113935 54 304 12.0 17.0 0.02 0.50 0.23 94 1013.3
20260505113905 54 268 9.0 17.0 0.02 0.50 0.23 94 1013.3
20260505113718 54 259 8.0 17.0 0.02 0.50 0.23 94 1013.4
20260505113531 54 227 7.0 17.0 0.02 0.50 0.23 94 1013.5
20260505113504 54 271 7.0 17.0 0.02 0.50 0.23 94 1013.5
20260505113337 54 247 9.0 17.0 0.02 0.50 0.23 94 1013.5
20260505113143 54 264 10.0 15.0 0.02 0.50 0.23 94 1013.6
20260505113038 54 269 8.0 15.0 0.02 0.50 0.23 94 1013.6
20260505112953 54 228 8.0 15.0 0.02 0.50 0.23 94 1013.5
20260505112802 54 261 7.0 15.0 0.02 0.50 0.23 95 1013.6
20260505112623 54 231 8.0 15.0 0.02 0.50 0.23 95 1013.6
20260505112610 54 267 8.0 15.0 0.02 0.50 0.23 95 1013.6
20260505112441 54 273 9.0 15.0 0.02 0.49 0.23 95 1013.5
20260505112252 54 263 6.0 13.0 0.02 0.49 0.22 96 1013.6
20260505112146 54 241 6.0 14.0 0.02 0.49 0.22 95 1013.6
20260505112051 54 275 6.0 14.0 0.02 0.49 0.22 95 1013.5
20260505111902 54 216 5.0 14.0 0.02 0.49 0.22 95 1013.7
20260505111411 54 252 6.0 14.0 0.02 0.49 0.22 95 1013.6
20260505111226 54 265 7.0 14.0 0.02 0.50 0.22 95 1013.6
20260505111133 54 271 5.0 13.0 0.02 0.50 0.22 95 1013.6
20260505111043 53 232 5.0 13.0 0.02 0.50 0.22 95 1013.6
20260505110908 53 265 7.0 13.0 0.02 0.50 0.22 94 1013.8
20260505110514 53 265 5.0 17.0 0.02 0.50 0.22 94 1013.7
20260505110329 53 261 9.0 17.0 0.02 0.49 0.21 94 1013.7
20260505110146 53 260 9.0 17.0 0.02 0.49 0.21 94 1013.7
20260505102205 56 212 1.0 3.0 0.02 0.49 0.20 93 1013.1
20260505102053 56 222 0.0 2.0 0.02 0.48 0.20 94 1013.1
20260505101957 57 222 0.0 3.0 0.02 0.48 0.20 94 1013.1
20260505101906 56 221 0.0 3.0 0.02 0.48 0.20 94 1013.0
20260505101842 56 221 0.0 3.0 0.02 0.48 0.20 94 1013.1
20260505101405 56 207 1.0 3.0 0.02 0.49 0.20 93 1013.1
20260505101341 56 207 1.0 3.0 0.02 0.49 0.20 93 1013.2
20260505101254 56 200 1.0 4.0 0.02 0.49 0.20 93 1013.2
20260505101120 56 220 1.0 4.0 0.02 0.49 0.20 93 1013.2
20260505101006 56 209 2.0 6.0 0.02 0.49 0.20 93 1013.1
20260505100947 56 209 1.0 6.0 0.02 0.49 0.20 93 1013.2
20260505100823 56 207 1.0 7.0 0.02 0.49 0.20 93 1013.1
20260505100704 56 209 2.0 7.0 0.02 0.49 0.20 92 1013.2
20260505100629 56 211 2.0 7.0 0.02 0.49 0.20 92 1013.0
20260505100511 56 239 2.0 7.0 0.02 0.49 0.20 92 1013.1
20260505100334 56 234 3.0 7.0 0.02 0.49 0.20 92 1013.1
20260505100009 56 242 4.0 7.0 0.02 0.48 0.20 92 1013.1
20260505095818 56 258 4.0 7.0 0.02 0.48 0.19 92 1013.0
20260505095641 56 274 5.0 7.0 0.02 0.48 0.19 92 1013.0
20260505095608 56 252 5.0 7.0 0.02 0.48 0.19 92 1013.0
20260505095057 56 252 2.0 8.0 0.02 0.49 0.19 92 1013.0
20260505094941 56 257 3.0 9.0 0.02 0.49 0.19 92 1013.2
20260505094917 56 245 4.0 9.0 0.02 0.49 0.19 92 1012.9
20260505094346 56 259 3.0 9.0 0.02 0.49 0.19 92 1013.0
20260505094316 56 240 3.0 9.0 0.02 0.49 0.19 92 1012.9
20260505093803 56 281 5.0 9.0 0.02 0.49 0.19 91 1013.1
20260505093640 56 290 4.0 9.0 0.02 0.49 0.19 92 1013.0
20260505093612 56 276 2.0 9.0 0.02 0.49 0.19 92 1013.0
20260505093431 56 268 5.0 9.0 0.02 0.49 0.19 92 1013.0
20260505093251 56 283 7.0 10.0 0.02 0.49 0.19 91 1013.0
20260505093220 56 282 7.0 10.0 0.02 0.49 0.19 91 1013.0
20260505093108 56 262 4.0 10.0 0.02 0.49 0.19 92 1013.0
20260505092638 56 313 7.0 10.0 0.02 0.48 0.18 92 1013.0
20260505092450 56 297 7.0 10.0 0.02 0.48 0.18 92 1013.0
20260505092245 56 301 2.0 10.0 0.02 0.48 0.18 92 1013.0
20260505092216 56 231 2.0 10.0 0.02 0.48 0.18 93 1013.1
20260505092104 56 312 3.0 10.0 0.02 0.49 0.18 93 1013.0
20260505091729 56 252 4.0 12.0 0.02 0.49 0.18 93 1013.0
20260505090642 56 284 4.0 12.0 0.02 0.49 0.18 94 1013.0
20260505090528 56 225 4.0 9.0 0.02 0.49 0.18 93 1012.9
20260505090448 56 257 3.0 9.0 0.02 0.49 0.18 94 1013.0
20260505090305 56 258 4.0 9.0 0.02 0.48 0.18 93 1013.0
20260505090118 56 269 3.0 9.0 0.02 0.48 0.17 94 1013.0
20260505090056 56 255 3.0 9.0 0.02 0.48 0.17 94 1013.0
20260505085935 56 279 6.0 9.0 0.02 0.48 0.17 93 1013.0
20260505085744 56 254 5.0 9.0 0.02 0.48 0.17 94 1013.0
20260505085637 56 270 4.0 9.0 0.02 0.48 0.17 94 1013.0
20260505085551 56 281 5.0 9.0 0.02 0.48 0.17 94 1013.0
20260505085409 56 286 6.0 10.0 0.02 0.49 0.17 94 1013.0
20260505085229 56 280 6.0 10.0 0.02 0.49 0.17 94 1013.0
20260505085211 56 258 6.0 10.0 0.02 0.49 0.17 94 1013.0
20260505084721 55 309 6.0 10.0 0.02 0.49 0.17 94 1013.0
20260505084153 55 273 2.0 9.0 0.02 0.49 0.17 95 1013.0
20260505084018 55 256 3.0 9.0 0.02 0.48 0.17 94 1012.9
20260505083834 55 311 3.0 11.0 0.02 0.48 0.17 94 1013.0
20260505083509 55 252 3.0 12.0 0.02 0.48 0.17 94 1013.0
20260505083327 55 313 5.0 12.0 0.02 0.48 0.17 94 1012.9
20260505083135 55 286 7.0 12.0 0.02 0.48 0.17 94 1012.9
20260505082959 55 312 7.0 12.0 0.02 0.48 0.17 94 1013.0
20260505082813 55 309 7.0 12.0 0.02 0.48 0.17 95 1012.9
20260505082715 55 286 7.0 12.0 0.02 0.48 0.17 95 1013.0
20260505082621 55 233 9.0 11.0 0.02 0.49 0.17 95 1012.9
20260505082443 55 271 4.0 10.0 0.02 0.49 0.17 95 1013.0
20260505082054 55 290 5.0 9.0 0.02 0.49 0.17 95 1012.9
20260505081906 55 310 5.0 9.0 0.02 0.49 0.17 96 1012.9
20260505081718 55 275 4.0 11.0 0.02 0.48 0.17 96 1012.9
20260505081619 55 269 3.0 11.0 0.02 0.48 0.16 96 1013.0
20260505081523 55 274 3.0 11.0 0.02 0.48 0.16 96 1013.0
20260505081336 54 292 4.0 11.0 0.02 0.48 0.16 96 1013.0
20260505081149 54 274 5.0 11.0 0.02 0.48 0.16 96 1012.9
20260505081136 54 292 5.0 11.0 0.02 0.48 0.16 96 1012.9
20260505080950 54 271 8.0 11.0 0.02 0.48 0.16 96 1013.0
20260505080807 55 267 2.0 9.0 0.02 0.48 0.16 97 1012.9
20260505080701 55 260 1.0 7.0 0.02 0.48 0.16 97 1012.9
20260505080051 54 282 4.0 9.0 0.02 0.48 0.16 97 1012.9
20260505075915 54 313 2.0 9.0 0.02 0.48 0.16 97 1012.9
20260505075732 54 287 6.0 9.0 0.02 0.48 0.16 97 1012.9
20260505075627 54 284 7.0 9.0 0.02 0.48 0.16 97 1012.8
20260505074503 54 294 2.0 8.0 0.02 0.48 0.15 98 1012.8
20260505074327 54 312 2.0 8.0 0.02 0.48 0.15 98 1012.9
20260505074150 54 311 3.0 8.0 0.02 0.48 0.15 98 1013.0
20260505074030 54 302 4.0 8.0 0.02 0.48 0.15 98 1012.9
20260505073945 54 269 5.0 8.0 0.02 0.48 0.15 97 1012.9
20260505073401 54 303 4.0 8.0 0.02 0.48 0.15 97 1012.9
20260505073339 54 290 4.0 8.0 0.02 0.48 0.15 97 1013.0
20260505072818 54 277 5.0 8.0 0.02 0.48 0.15 98 1012.8
20260505072015 54 272 6.0 8.0 0.02 0.48 0.15 97 1012.8
20260505071821 54 270 5.0 7.0 0.02 0.47 0.15 98 1012.8
20260505071752 54 265 5.0 7.0 0.02 0.47 0.14 98 1012.8
20260505071628 54 265 3.0 7.0 0.02 0.47 0.14 98 1012.7
20260505071105 54 298 3.0 8.0 0.02 0.47 0.14 98 1012.8
20260505070634 54 279 4.0 8.0 0.02 0.47 0.14 98 1012.7
20260505070439 54 291 3.0 8.0 0.02 0.48 0.14 98 1012.9
20260505070409 54 267 4.0 8.0 0.02 0.48 0.14 98 1012.8
20260505070254 54 269 5.0 8.0 0.02 0.48 0.14 98 1012.8
20260505070110 54 277 3.0 8.0 0.02 0.48 0.14 98 1012.9
20260505065955 54 298 2.0 8.0 0.02 0.48 0.14 98 1012.8
20260505065529 54 256 3.0 8.0 0.02 0.48 0.14 98 1012.8
20260505065333 54 247 3.0 8.0 0.02 0.48 0.14 98 1012.8
20260505065303 54 247 3.0 8.0 0.02 0.48 0.14 98 1012.8
20260505065142 54 239 4.0 10.0 0.02 0.48 0.14 98 1012.9
20260505065005 54 267 2.0 10.0 0.02 0.48 0.14 98 1012.9
20260505064836 54 257 3.0 10.0 0.02 0.48 0.14 98 1012.9
20260505064410 54 303 3.0 10.0 0.01 0.47 0.14 98 1012.8
20260505063927 53 223 4.0 10.0 0.01 0.47 0.13 98 1012.8
20260505063805 53 261 3.0 8.0 0.02 0.47 0.13 98 1012.9
20260505063251 53 227 3.0 8.0 0.02 0.47 0.13 98 1012.8
20260505063217 53 259 3.0 8.0 0.02 0.47 0.13 98 1012.8
20260505063043 53 274 4.0 8.0 0.02 0.47 0.13 98 1012.8
20260505062848 53 258 4.0 8.0 0.02 0.47 0.13 98 1012.8
20260505062819 53 264 3.0 8.0 0.02 0.47 0.13 98 1012.8
20260505062703 53 276 2.0 6.0 0.02 0.48 0.13 98 1012.8
20260505062523 53 240 2.0 6.0 0.02 0.48 0.13 98 1012.8
20260505062121 53 249 2.0 8.0 0.02 0.48 0.13 98 1012.8
20260505061940 53 250 2.0 9.0 0.02 0.48 0.13 98 1012.8
20260505061747 53 246 2.0 9.0 0.02 0.48 0.13 98 1012.7
20260505061718 53 236 2.0 9.0 0.02 0.48 0.13 98 1012.7
20260505061603 53 244 2.0 9.0 0.02 0.48 0.13 98 1012.7
20260505061418 53 246 6.0 9.0 0.02 0.48 0.13 98 1012.8
20260505061243 53 273 4.0 9.0 0.02 0.48 0.13 98 1012.6
20260505061207 53 265 4.0 9.0 0.02 0.48 0.13 98 1012.7
20260505061025 53 261 4.0 8.0 0.02 0.48 0.13 98 1012.8
20260505060747 53 257 3.0 6.0 0.01 0.47 0.13 98 1012.8
20260505060727 53 245 4.0 6.0 0.01 0.47 0.13 98 1012.8
20260505060554 53 277 4.0 6.0 0.01 0.47 0.13 98 1012.8
20260505060406 53 271 3.0 6.0 0.02 0.47 0.13 98 1012.7
20260505055952 53 257 3.0 6.0 0.02 0.47 0.13 98 1012.8
20260505055819 53 284 2.0 6.0 0.02 0.47 0.13 98 1012.7
20260505055630 53 257 2.0 6.0 0.02 0.47 0.13 98 1012.7
20260505055605 53 251 2.0 6.0 0.02 0.47 0.13 98 1012.7
20260505055437 53 233 3.0 6.0 0.02 0.47 0.13 98 1012.7
20260505055258 53 250 2.0 4.0 0.02 0.47 0.13 98 1012.7
20260505055147 53 241 2.0 4.0 0.02 0.48 0.13 98 1012.8
20260505055055 53 275 2.0 4.0 0.02 0.48 0.13 98 1012.7
20260505054914 53 215 1.0 3.0 0.02 0.48 0.13 98 1012.7
20260505054748 53 209 1.0 3.0 0.02 0.48 0.13 98 1012.7
20260505053947 53 232 1.0 3.0 0.02 0.48 0.13 98 1012.7
20260505053904 53 220 1.0 3.0 0.02 0.48 0.13 98 1012.6
20260505053828 53 244 2.0 3.0 0.02 0.48 0.13 98 1012.7
20260505053259 53 250 0.0 3.0 0.02 0.48 0.13 98 1012.6
20260505053246 53 250 0.0 3.0 0.02 0.48 0.13 98 1012.7
20260505053134 53 246 2.0 3.0 0.01 0.47 0.12 98 1012.7
20260505052902 53 234 0.0 3.0 0.01 0.47 0.12 98 1012.5
20260505052742 53 236 0.0 2.0 0.02 0.47 0.12 98 1012.6
20260505052707 53 222 0.0 2.0 0.02 0.47 0.12 98 1012.6
20260505052129 53 223 0.0 2.0 0.02 0.47 0.12 98 1012.6
20260505052116 53 223 0.0 2.0 0.02 0.47 0.12 98 1012.7
20260505051554 53 238 0.0 3.0 0.02 0.47 0.12 98 1012.6
20260505051518 53 238 0.0 3.0 0.02 0.48 0.12 98 1012.6
20260505051453 53 238 0.0 3.0 0.02 0.48 0.12 98 1012.6
20260505051255 53 239 0.0 3.0 0.02 0.48 0.12 98 1012.6
20260505051116 53 231 0.0 3.0 0.02 0.48 0.12 98 1012.6
20260505050923 53 240 1.0 3.0 0.02 0.48 0.12 98 1012.5
20260505050751 53 218 0.0 0.0 0.02 0.48 0.12 98 1012.5
20260505050438 53 218 0.0 0.0 0.02 0.48 0.12 98 1012.4
20260505050255 53 218 0.0 0.0 0.02 0.48 0.12 98 1012.5
20260505050151 53 218 0.0 0.0 0.02 0.48 0.12 98 1012.5
20260505041624 54 218 0.0 0.0 0.02 0.48 0.10 98 1012.5
20260505041514 54 218 0.0 0.0 0.02 0.48 0.10 98 1012.5
20260505041459 54 218 0.0 0.0 0.02 0.48 0.10 98 1012.5
20260505041415 54 218 0.0 0.0 0.02 0.48 0.10 98 1012.6
20260505040835 53 218 0.0 0.0 0.02 0.48 0.10 98 1012.5
20260505040806 54 218 0.0 0.0 0.02 0.48 0.10 98 1012.5
20260505040615 54 218 0.0 0.0 0.02 0.48 0.10 98 1012.5
20260505040458 55 250 0.0 0.0 0.02 0.49 0.48 97 1014.4
20260505040428 54 218 0.0 0.0 0.02 0.48 0.10 98 1012.5
20260505040402 53 218 0.0 0.0 0.02 0.48 0.10 98 1012.5
20260505040218 54 218 0.0 1.0 0.02 0.48 0.10 98 1012.5
20260505040021 54 218 0.0 1.0 0.02 0.48 0.10 98 1012.6
20260505035939 55 250 0.0 0.0 0.02 0.49 0.48 97 1014.4
20260505035840 54 218 0.0 1.0 0.02 0.48 0.10 98 1012.5
20260505035823 53 218 0.0 1.0 0.02 0.48 0.10 98 1012.5
20260505035610 54 218 0.0 1.0 0.02 0.48 0.10 98 1012.5
20260505035449 55 250 0.0 0.0 0.02 0.49 0.47 97 1014.5
20260505035407 54 218 0.0 1.0 0.02 0.48 0.10 98 1012.5
20260505035338 54 218 0.0 1.0 0.01 0.47 0.10 98 1012.5
20260505035231 54 217 0.0 1.0 0.02 0.48 0.09 98 1012.5
20260505035006 54 217 0.0 1.0 0.02 0.48 0.09 98 1012.5
20260505034959 55 250 0.0 2.0 0.03 0.50 0.47 96 1014.5
20260505034827 54 217 0.0 1.0 0.02 0.48 0.09 98 1012.5
20260505034814 54 224 0.0 1.0 0.02 0.48 0.09 98 1012.5
20260505034610 54 224 0.0 1.0 0.02 0.48 0.09 98 1012.6
20260505034551 55 264 0.0 0.0 0.02 0.49 0.46 96 1014.4
20260505034414 54 224 0.0 1.0 0.02 0.48 0.09 98 1012.6
20260505034335 54 224 0.0 1.0 0.02 0.48 0.09 98 1012.6
20260505034223 54 224 0.0 1.0 0.02 0.48 0.09 98 1012.5
20260505033953 54 250 0.0 0.0 0.02 0.48 0.09 98 1012.6
20260505033821 54 250 0.0 0.0 0.02 0.48 0.09 98 1012.5
20260505033754 54 250 0.0 0.0 0.02 0.48 0.09 98 1012.5
20260505033553 54 250 0.0 0.0 0.02 0.48 0.09 98 1012.5
20260505033425 55 264 0.0 0.0 0.02 0.49 0.46 95 1014.2
20260505033400 54 250 0.0 0.0 0.02 0.48 0.09 98 1012.5
20260505033325 54 250 0.0 0.0 0.02 0.48 0.09 98 1012.6
20260505033225 54 250 0.0 0.0 0.02 0.48 0.09 98 1012.5
20260505033033 54 250 0.0 0.0 0.02 0.49 0.09 98 1012.6
20260505032935 54 250 0.0 0.0 0.02 0.49 0.09 98 1012.5
20260505032921 54 250 0.0 0.0 0.02 0.49 0.09 98 1012.4
20260505032747 54 250 0.0 0.0 0.02 0.49 0.09 98 1012.6
20260505032625 54 250 0.0 0.0 0.02 0.49 0.09 98 1012.6
20260505032127 54 250 0.0 0.0 0.02 0.48 0.09 98 1012.6
20260505031808 54 250 0.0 0.0 0.02 0.48 0.09 98 1012.6
20260505031720 54 250 0.0 0.0 0.02 0.48 0.09 98 1012.7
20260505031536 54 250 0.0 0.0 0.02 0.48 0.09 98 1012.6
20260505031313 54 250 0.0 0.0 0.02 0.48 0.09 98 1012.6
20260505031156 54 250 0.0 0.0 0.02 0.48 0.09 98 1012.6
20260505030955 54 250 0.0 0.0 0.02 0.48 0.09 98 1012.6
20260505030917 54 250 0.0 0.0 0.02 0.48 0.09 98 1012.7
20260505030850 54 250 0.0 0.0 0.02 0.48 0.09 98 1012.6
20260505030737 54 250 0.0 1.0 0.02 0.49 0.09 98 1012.6
20260505030635 54 250 0.0 1.0 0.02 0.49 0.09 98 1012.5
20260505025822 54 250 0.0 1.0 0.02 0.49 0.09 98 1012.6
20260505025724 54 244 0.0 1.0 0.02 0.49 0.09 98 1012.5
20260505025524 54 250 0.0 0.0 0.02 0.49 0.09 98 1012.5
20260505025358 54 250 0.0 0.0 0.02 0.49 0.09 98 1012.5
20260505025247 54 250 0.0 0.0 0.02 0.48 0.08 98 1012.5
20260505025053 54 250 0.0 0.0 0.02 0.48 0.08 98 1012.4
20260505024748 54 250 0.0 0.0 0.02 0.48 0.08 98 1012.5
20260505024557 54 250 0.0 0.0 0.02 0.48 0.08 98 1012.5
20260505024456 54 250 0.0 0.0 0.02 0.48 0.08 98 1012.6
20260505024449 54 250 0.0 0.0 0.02 0.48 0.08 98 1012.6
20260505024358 54 250 0.0 0.0 0.02 0.49 0.08 98 1012.5
20260505024219 54 250 0.0 0.0 0.02 0.49 0.08 98 1012.5
20260505023521 54 250 0.0 0.0 0.02 0.49 0.08 98 1012.4
20260505023428 54 250 0.0 0.0 0.02 0.49 0.08 98 1012.5
20260505023405 54 250 0.0 2.0 0.02 0.49 0.08 98 1012.6
20260505023229 54 250 0.0 2.0 0.02 0.49 0.08 98 1012.5
20260505023129 54 250 0.0 2.0 0.02 0.49 0.08 98 1012.6
20260505023103 54 250 0.0 2.0 0.02 0.49 0.08 98 1012.5
20260505023030 54 250 0.0 2.0 0.02 0.49 0.08 98 1012.5
20260505022858 54 250 0.0 2.0 0.02 0.49 0.08 98 1012.6
20260505022805 54 251 0.0 2.0 0.02 0.48 0.08 98 1012.5
20260505022749 54 252 0.0 2.0 0.02 0.48 0.08 98 1012.6
20260505021948 54 233 0.0 2.0 0.02 0.48 0.07 98 1012.5
20260505021859 54 233 0.0 2.0 0.02 0.48 0.07 98 1012.6
20260505021708 54 233 0.0 2.0 0.02 0.48 0.07 98 1012.6
20260505021620 54 233 0.0 2.0 0.02 0.48 0.07 98 1012.6
20260505021534 54 233 0.0 4.0 0.02 0.49 0.07 98 1012.7
20260505021415 54 233 0.0 4.0 0.02 0.49 0.07 98 1012.6
20260505021350 54 236 0.0 4.0 0.02 0.49 0.07 98 1012.6
20260505021303 54 236 1.0 4.0 0.02 0.49 0.07 98 1012.6
20260505021124 54 244 0.0 4.0 0.02 0.49 0.07 98 1012.6
20260505021022 54 247 1.0 4.0 0.02 0.49 0.07 98 1012.8
20260505021003 54 247 1.0 4.0 0.02 0.49 0.07 98 1012.6
20260505020818 54 264 0.0 3.0 0.02 0.49 0.07 98 1012.8
20260505020657 54 238 2.0 2.0 0.02 0.49 0.07 98 1012.7
20260505020627 54 234 2.0 2.0 0.02 0.49 0.07 98 1012.6
20260505020516 54 253 1.0 2.0 0.02 0.49 0.07 98 1012.8
20260505020329 54 249 1.0 2.0 0.02 0.48 0.07 98 1012.8
20260505015940 54 246 1.0 2.0 0.02 0.48 0.06 98 1012.8
20260505015815 54 240 1.0 3.0 0.02 0.48 0.06 98 1012.9
20260505015642 54 242 1.0 3.0 0.02 0.48 0.06 98 1012.8
20260505015259 54 236 1.0 3.0 0.02 0.48 0.06 98 1012.9
20260505015119 54 245 1.0 3.0 0.02 0.48 0.06 98 1012.8
20260505015016 54 238 1.0 3.0 0.02 0.48 0.06 98 1012.8
20260505014947 54 238 1.0 3.0 0.02 0.48 0.06 98 1012.9
20260505014756 54 229 2.0 3.0 0.02 0.49 0.06 98 1012.9
20260505014620 54 244 1.0 2.0 0.02 0.49 0.06 98 1012.9
20260505014545 54 245 1.0 2.0 0.02 0.49 0.06 98 1012.9
20260505014056 54 232 0.0 2.0 0.02 0.49 0.06 98 1013.0
20260505013728 54 229 1.0 3.0 0.02 0.49 0.06 98 1013.0
20260505013611 54 229 1.0 3.0 0.02 0.49 0.06 98 1012.9
20260505013444 54 245 1.0 3.0 0.02 0.49 0.06 98 1013.0
20260505013413 54 242 1.0 3.0 0.02 0.49 0.06 98 1012.9
20260505012849 54 233 2.0 3.0 0.02 0.48 0.06 98 1012.8
20260505012729 54 253 1.0 3.0 0.02 0.48 0.06 98 1012.9
20260505012700 54 255 1.0 3.0 0.02 0.48 0.06 98 1013.0
20260505012201 54 252 1.0 3.0 0.02 0.48 0.06 98 1012.9
20260505012136 54 246 1.0 3.0 0.02 0.48 0.06 98 1013.0
20260505012024 54 251 2.0 3.0 0.02 0.48 0.06 98 1012.9
20260505011813 54 239 2.0 3.0 0.02 0.48 0.06 98 1012.9
20260505011713 54 241 2.0 2.0 0.02 0.48 0.06 98 1012.9
20260505011653 54 241 1.0 2.0 0.02 0.48 0.06 98 1012.9
20260505011503 54 244 2.0 2.0 0.02 0.49 0.06 98 1012.8
20260505011336 54 236 1.0 2.0 0.02 0.49 0.06 98 1012.9
20260505011311 54 244 1.0 2.0 0.02 0.49 0.06 98 1012.9
20260505011209 54 244 1.0 2.0 0.02 0.49 0.06 98 1013.0
20260505011049 54 244 1.0 2.0 0.02 0.49 0.06 98 1013.0
20260505010706 54 244 0.0 2.0 0.02 0.49 0.06 98 1013.0
20260505010551 54 244 0.0 1.0 0.02 0.49 0.06 98 1013.1
20260505010327 54 244 0.0 2.0 0.02 0.49 0.06 98 1013.1
20260505010251 54 244 0.0 2.0 0.02 0.49 0.06 98 1013.2
20260505005820 54 235 0.0 2.0 0.02 0.48 0.05 98 1013.0
20260505005706 54 235 0.0 2.0 0.02 0.48 0.05 98 1013.2
20260505005651 54 235 1.0 2.0 0.02 0.48 0.05 98 1013.2
20260505005529 54 245 1.0 2.0 0.02 0.48 0.05 98 1013.3
20260505005331 54 239 1.0 2.0 0.02 0.48 0.05 98 1013.3
20260505005008 54 236 0.0 2.0 0.02 0.48 0.05 98 1013.2
20260505004441 54 243 0.0 0.0 0.02 0.48 0.05 98 1013.2
20260505004102 54 243 0.0 0.0 0.02 0.49 0.05 98 1013.2
20260505003857 54 243 0.0 0.0 0.02 0.49 0.05 98 1013.3
20260505003819 54 243 0.0 0.0 0.02 0.49 0.05 98 1013.2
20260505003748 54 243 0.0 0.0 0.02 0.49 0.05 98 1013.3
20260505003300 55 264 0.0 0.0 0.02 0.49 0.45 95 1014.0
20260505003216 54 243 0.0 0.0 0.02 0.49 0.05 98 1013.3
20260505003101 54 243 0.0 0.0 0.02 0.49 0.05 98 1013.3
20260505002915 55 264 0.0 0.0 0.03 0.49 0.45 95 1013.8
20260505002809 54 243 0.0 0.0 0.02 0.49 0.05 98 1013.3
20260505002723 54 243 0.0 0.0 0.02 0.48 0.05 98 1013.3
20260505002637 54 243 0.0 0.0 0.02 0.48 0.04 98 1013.3
20260505002405 54 243 0.0 0.0 0.02 0.48 0.04 98 1013.3
20260505002232 54 243 0.0 0.0 0.02 0.48 0.04 98 1013.4
20260505002119 54 243 0.0 0.0 0.02 0.48 0.04 98 1013.4
20260505001938 54 243 0.0 0.0 0.02 0.48 0.04 98 1013.4
20260505001902 54 243 0.0 0.0 0.02 0.48 0.04 98 1013.4
20260505001826 54 243 0.0 0.0 0.02 0.48 0.04 98 1013.4